Location: Paralde Spring
(38.5794°N, 119.0140°W)
Time: 23:16:14
(UTC+00:00)

ADEOS Rocket - Pass Details

Date: 18 September 2020
Orbit: 858 x 1307 km, 98.7° (Epoch: 20 October)

Event Time Altitude Azimuth Distance (km) Brightness Sun altitude
Rises 12:46:41 0° 179° (S) 4,131 6.2 -11.3°
Reaches altitude 10° 12:49:30 10° 183° (S) 3,115 5.5 -10.8°
Maximum altitude 12:56:24 53° 259° (W) 1,333 3.4 -9.5°
Drops below altitude 10° 13:02:41 10° 336° (NNW) 2,825 5.3 -8.2°
Sets 13:05:08 0° 342° (NNW) 3,719 5.9 -7.8°
